Regional Weather Roundup
Issued by NWS

Home | Current Version | Previous Version | Text Only | Print | Product List | Glossary Off
Versions: 1 2 3 4 5 6 7 8 9 10 11 12 13 14 15 16 17 18 19 20 21 22 23 24 25 26 27 28 29 30 31 32 33 34 35 36 37 38 39 40 41 42 43 44 45 46 47 48 49 50

000
ASUS43 KOAX 270610
RWRNE

WEATHER ROUNDUP FOR NEBRASKA
NATIONAL WEATHER SERVICE OMAHA NE
1200 AM CST SAT DEC 27 2014

NOTES: SATELLITE DATA IS BEING USED TO AUGMENT CLOUD COVER ABOVE
       12000 FEET.
       "FAIR" INDICATES FEW OR NO CLOUDS BELOW 12,000 FEET WITH NO
       SIGNIFICANT WEATHER AND/OR OBSTRUCTIONS TO VISIBILITY.

  * THESE STATIONS DO NOT REPORT WEATHER SUCH AS RAIN...SNOW OR FOG.

NEZ001>004-019>022-054>056-270700-
NEBRASKA PANHANDLE

CITY           SKY/WX    TMP DP  RH WIND       PRES   REMARKS
SCOTTSBLUFF    CLOUDY    13  11  92 W6        30.12R WCI   4
6HR MIN TEMP:  13; 6HR MAX TEMP:  19; 6HR PCP:  0.02;

ALLIANCE       CLOUDY    15  14  95 W3        30.09S
6HR MIN TEMP:  14; 6HR MAX TEMP:  18; 6HR PCP: TRACE;

CHADRON        CLOUDY    19  15  84 CALM      30.15R
6HR MIN TEMP:  18; 6HR MAX TEMP:  19;

KIMBALL        LGT SNOW  14  12  90 W5        30.06R WCI   7
SIDNEY         LGT SNOW  15  11  83 W7        30.11R FOG     WCI   5
6HR MIN TEMP:  13; 6HR MAX TEMP:  16; 6HR PCP:  0.01;

$$

NEZ057>060-069>072-079>082-270700-
SOUTHWEST NEBRASKA

CITY           SKY/WX    TMP DP  RH WIND       PRES   REMARKS
NORTH PLATTE   LGT SNOW  17  14  88 NW6       30.15S FOG     WCI   9
6HR MIN TEMP:  18; 6HR MAX TEMP:  21; 6HR PCP:  0.06;

IMPERIAL       CLOUDY    13  10  88 NW8       30.16R WCI   2
6HR MIN TEMP:  14; 6HR MAX TEMP:  20; 6HR PCP:  0.01;

LEXINGTON      LGT SNOW  20  18  90 NW9       30.16R WCI  10
MCCOOK         CLOUDY    19  15  84 NW8       30.17S WCI   9
6HR MIN TEMP:  18; 6HR MAX TEMP:  23; 6HR PCP:  0.04;

OGALLALA       LGT SNOW  18  16  94 W5        30.15R WCI  11
$$

NEZ005>010-023>029-035>040-094-270700-
NORTH CENTRAL NEBRASKA

CITY           SKY/WX    TMP DP  RH WIND       PRES   REMARKS
VALENTINE      LGT SNOW  17  13  84 NW7       30.15S FOG     WCI   8
6HR MIN TEMP:  17; 6HR MAX TEMP:  20; 6HR PCP:  0.07;

AINSWORTH      LGT SNOW  16  14  90 N9        30.13S WCI   5
BROKEN BOW     LGT SNOW  20  16  84 NW12      30.13S FOG     WCI   8
6HR MIN TEMP:  20; 6HR MAX TEMP:  22; 6HR PCP:  0.01;

O`NEILL        LGT SNOW  20  19  95 NW13      30.13F WCI   7
ORD            LGT SNOW  19  16  88 NW10      30.13R FOG     WCI   7
6HR MIN TEMP:  19; 6HR MAX TEMP:  22; 6HR PCP:  0.02;

THEDFORD       LGT SNOW  18  15  89 NW12      30.14S WCI   5
$$

NEZ041-046>049-061>064-073>077-083>087-270700-
SOUTH CENTRAL NEBRASKA

CITY           SKY/WX    TMP DP  RH WIND       PRES   REMARKS
GRAND ISLAND   LGT SNOW  21  18  88 NW12      30.13S FOG     WCI   9
6HR MIN TEMP:  21; 6HR MAX TEMP:  24; 6HR PCP:  0.11;

AURORA         LGT SNOW  23  21  93 NW12      30.11R WCI  11
HASTINGS       FLURRIES  21  18  88 NW16      30.11R WCI   7
6HR MIN TEMP:  21; 6HR MAX TEMP:  25; 6HR PCP:  0.01;

HEBRON         FLURRIES  25  21  86 NW9G21    30.11R WCI  15
HOLDREGE       LGT SNOW  20  17  87 NW12G18   30.14R WCI   8
KEARNEY *      MOCLDY    19  16  86 NW12      30.13S WCI   7
YORK           FLURRIES  23  23 100 N13       30.09S WCI  11
$$

NEZ011>018-030>034-042>045-270700-
NORTHEAST NEBRASKA

CITY           SKY/WX    TMP DP  RH WIND       PRES   REMARKS
NORFOLK        LGT SNOW  23  20  88 NW14      30.09R FOG     WCI  11
6HR MIN TEMP:  23; 6HR MAX TEMP:  26; 6HR PCP:  0.13;

ALBION         LGT SNOW  22  18  86 NW13      30.10S WCI  10
BLAIR          LGT SNOW  30  27  90 NW12      30.03R WCI  20
COLUMBUS *     CLOUDY    25  16  68 NW15      30.10R WCI  12
FREMONT        LGT SNOW  28  27  94 NW12      30.07R WCI  18
TEKAMAH        LGT SNOW  28  25  88 NW16      30.06S FOG     WCI  16
6HR MIN TEMP:  29; 6HR MAX TEMP:  32; 6HR PCP:  0.03;

WAYNE          LGT SNOW  24  21  90 NW15      30.09S WCI  11
$$

NEZ050>053-065>068-078-088>093-270700-
SOUTHEAST NEBRASKA

CITY           SKY/WX    TMP DP  RH WIND       PRES   REMARKS
LINCOLN        LGT SNOW  27  24  89 NW15      30.08S FOG     WCI  15
6HR MIN TEMP:  28; 6HR MAX TEMP:  31; 6HR PCP:  0.03;

OMAHA EPPLEY   LGT SNOW  31  29  92 NW14      30.05R VSB 1   WCI  21
6HR MIN TEMP:  31; 6HR MAX TEMP:  33; 6HR PCP:  0.03;

BEATRICE       CLOUDY    28  26  92 NW18      30.07R WCI  15
FALLS CITY     CLOUDY    33  32  96 W9        30.03R FOG     WCI  25
6HR MIN TEMP:  33; 6HR MAX TEMP:  35; 6HR PCP: TRACE;

NEBRASKA CITY  LGT SNOW  32  32 100 NW8       30.02S WCI  25
PLATTSMOUTH    LGT SNOW  31  30  94 NW9       30.02S WCI  23
$$

NEZ044-045-051>053-067-270700-
OMAHA AREA

CITY           SKY/WX    TMP DP  RH WIND       PRES   REMARKS
OMAHA EPPLEY   LGT SNOW  31  29  92 NW14      30.05R VSB 1   WCI  21
6HR MIN TEMP:  31; 6HR MAX TEMP:  33; 6HR PCP:  0.03;

BLAIR          LGT SNOW  30  27  90 NW12      30.03R WCI  20
FREMONT        LGT SNOW  28  27  94 NW12      30.07R WCI  18
MILLARD        LGT SNOW  31  28  89 NW10G16   30.04S WCI  23
OFFUTT AFB     FLURRIES  32  32 100 NW9       30.03R WCI  24
PLATTSMOUTH    LGT SNOW  31  30  94 NW9       30.02S WCI  23
WAHOO          LGT SNOW  28  25  89 NW14      30.07R WCI  17
$$


USA.gov is the U.S. government's official web portal to all federal, state and local government web resources and services.